55.7°F
Current conditions from King Hill
Updated every 5 minutes
 
  Wednesday October 1, 2014

Station Historical Data
Daily Summary for March 7, 2012 Units:  Metric    English   Both
« Previous Day
Next Day »
Daily Weekly Monthly Yearly Custom
  High: Low: Average:
Temperature: 12.1 °C -0.3 °C 6.5 °C
Dew Point: -0.9 °C -11.3 °C -5.1 °C
Humidity: 51% 36% 44%
Wind Speed: 24.1km/h 4.8km/h 15km/h
Wind Gust: 53.1km/h - -
Wind- - SSW
Pressure: 1029 hPa 1017.2 hPa -
Precipitation: 0 mm    
Historical Graphs
 
 
Tabular Data for March 7, 2012
Time Temperature Dew Point Pressure Wind Wind Speed Wind Gust Humidity Daily Rainfall
00:05 -0.3 °C -11.3 °C 1029 hPa SSW 11.3 km/h 19.3 km/h 43% 0 mm
00:10 -0.3 °C -11.3 °C 1029 hPa SSW 12.9 km/h 22.5 km/h 43% 0 mm
00:15 -0.2 °C -11 °C 1028.7 hPa SSW 11.3 km/h 22.5 km/h 44% 0 mm
00:20 -0.2 °C -10.9 °C 1028.7 hPa South 4.8 km/h 20.9 km/h 44% 0 mm
00:25 -0.1 °C -11.2 °C 1028.7 hPa SSW 8 km/h 24.1 km/h 43% 0 mm
00:30 0 °C -11.1 °C 1028.7 hPa SSW 9.7 km/h 24.1 km/h 43% 0 mm
00:35 0.1 °C -11.1 °C 1028.7 hPa South 8 km/h 24.1 km/h 43% 0 mm
00:40 0.1 °C -11 °C 1028.7 hPa SSW 11.3 km/h 24.1 km/h 43% 0 mm
00:50 0.2 °C -10.9 °C 1028.7 hPa SSW 9.7 km/h 24.1 km/h 43% 0 mm
00:55 0.3 °C -10.8 °C 1028.7 hPa SW 11.3 km/h 25.7 km/h 43% 0 mm
01:00 0.4 °C -10.7 °C 1028.7 hPa SSW 14.5 km/h 32.2 km/h 43% 0 mm
01:05 0.4 °C -10.7 °C 1028.7 hPa SSW 11.3 km/h 32.2 km/h 43% 0 mm
01:10 0.4 °C -10.7 °C 1028.7 hPa SSW 8 km/h 25.7 km/h 43% 0 mm
01:15 0.4 °C -10.4 °C 1028.7 hPa SSW 11.3 km/h 25.7 km/h 44% 0 mm
01:20 0.3 °C -10.5 °C 1028.7 hPa SSW 9.7 km/h 22.5 km/h 44% 0 mm
01:30 0.3 °C -10.6 °C 1028.7 hPa SSW 11.3 km/h 19.3 km/h 44% 0 mm
01:35 0.3 °C -10.5 °C 1028.7 hPa SSW 9.7 km/h 24.1 km/h 44% 0 mm
01:40 0.4 °C -10.4 °C 1028.7 hPa SSW 11.3 km/h 24.1 km/h 44% 0 mm
01:45 0.5 °C -10.3 °C 1028.3 hPa SSW 9.7 km/h 22.5 km/h 44% 0 mm
01:50 0.5 °C -10.3 °C 1028.3 hPa SSW 12.9 km/h 24.1 km/h 44% 0 mm
01:55 0.5 °C -10.3 °C 1028.3 hPa SSW 16.1 km/h 35.4 km/h 44% 0 mm
02:05 0.6 °C -10.3 °C 1028.3 hPa SSW 17.7 km/h 35.4 km/h 44% 0 mm
02:10 0.7 °C -10.2 °C 1028 hPa SSW 19.3 km/h 33.8 km/h 44% 0 mm
02:15 0.7 °C -10.2 °C 1028 hPa SSW 12.9 km/h 37 km/h 44% 0 mm
02:20 0.6 °C -9.9 °C 1028 hPa SW 12.9 km/h 37 km/h 45% 0 mm
02:25 0.6 °C -9.9 °C 1028 hPa SSW 12.9 km/h 30.6 km/h 45% 0 mm
02:30 0.6 °C -9.9 °C 1027.7 hPa SSW 14.5 km/h 32.2 km/h 45% 0 mm
02:35 0.6 °C -10 °C 1027.7 hPa SSW 16.1 km/h 32.2 km/h 45% 0 mm
02:40 0.5 °C -10.1 °C 1027.3 hPa SSW 12.9 km/h 33.8 km/h 45% 0 mm
02:45 0.5 °C -9.8 °C 1027.3 hPa SSW 17.7 km/h 33.8 km/h 46% 0 mm
02:50 0.6 °C -9.7 °C 1027.3 hPa SSW 16.1 km/h 33.8 km/h 46% 0 mm
02:55 0.6 °C -9.7 °C 1027 hPa SSW 17.7 km/h 33.8 km/h 46% 0 mm
03:00 0.6 °C -9.7 °C 1027 hPa SSW 16.1 km/h 35.4 km/h 46% 0 mm
03:05 0.5 °C -9.8 °C 1027.3 hPa SSW 12.9 km/h 35.4 km/h 46% 0 mm
03:10 0.4 °C -9.8 °C 1027.3 hPa SSW 11.3 km/h 32.2 km/h 46% 0 mm
03:15 0.4 °C -9.8 °C 1027.3 hPa SSW 11.3 km/h 27.4 km/h 46% 0 mm
03:20 0.5 °C -9.8 °C 1027.3 hPa SSW 12.9 km/h 30.6 km/h 46% 0 mm
03:25 0.5 °C -9.8 °C 1027.3 hPa SSW 14.5 km/h 30.6 km/h 46% 0 mm
03:30 0.6 °C -9.9 °C 1027.3 hPa SSW 17.7 km/h 33.8 km/h 45% 0 mm
03:35 0.6 °C -9.9 °C 1027 hPa SSW 12.9 km/h 33.8 km/h 45% 0 mm
03:45 0.6 °C -9.7 °C 1027 hPa SSW 9.7 km/h 29 km/h 46% 0 mm
03:50 0.7 °C -9.6 °C 1027 hPa SSW 12.9 km/h 27.4 km/h 46% 0 mm
03:55 0.7 °C -9.4 °C 1027 hPa SSW 12.9 km/h 27.4 km/h 47% 0 mm
04:00 0.7 °C -9.6 °C 1026.6 hPa South 11.3 km/h 27.4 km/h 46% 0 mm
04:05 0.8 °C -9.3 °C 1026.6 hPa SSW 8 km/h 24.1 km/h 47% 0 mm
04:10 0.8 °C -9.2 °C 1026.6 hPa SSW 9.7 km/h 24.1 km/h 47% 0 mm
04:15 1 °C -9.1 °C 1026.6 hPa SSW 8 km/h 29 km/h 47% 0 mm
04:20 1 °C -9.1 °C 1026.6 hPa SSW 8 km/h 29 km/h 47% 0 mm
04:25 1 °C -9.1 °C 1026.3 hPa South 12.9 km/h 24.1 km/h 47% 0 mm
04:30 1.1 °C -9 °C 1026.3 hPa SSW 11.3 km/h 25.7 km/h 47% 0 mm
04:35 1.2 °C -8.9 °C 1026.3 hPa SSW 12.9 km/h 27.4 km/h 47% 0 mm
04:40 1.2 °C -8.9 °C 1026.3 hPa SSW 14.5 km/h 29 km/h 47% 0 mm
04:45 1.2 °C -8.6 °C 1026.3 hPa SSW 9.7 km/h 29 km/h 48% 0 mm
04:50 1.2 °C -8.9 °C 1026.3 hPa SSW 16.1 km/h 37 km/h 47% 0 mm
04:55 1.3 °C -8.6 °C 1026 hPa SSW 20.9 km/h 37 km/h 48% 0 mm
05:00 1.3 °C -8.5 °C 1026.3 hPa SSW 14.5 km/h 35.4 km/h 48% 0 mm
05:05 1.3 °C -8.5 °C 1026 hPa SSW 20.9 km/h 35.4 km/h 48% 0 mm
05:10 1.3 °C -8.5 °C 1026 hPa SSW 16.1 km/h 35.4 km/h 48% 0 mm
05:15 1.3 °C -8.5 °C 1026 hPa SSW 22.5 km/h 38.6 km/h 48% 0 mm
05:20 1.3 °C -8.5 °C 1026 hPa SSW 14.5 km/h 38.6 km/h 48% 0 mm
05:25 1.3 °C -8.2 °C 1026 hPa SSW 17.7 km/h 43.5 km/h 49% 0 mm
05:30 1.3 °C -8.5 °C 1026 hPa SSW 19.3 km/h 43.5 km/h 48% 0 mm
05:35 1.3 °C -8.5 °C 1025.6 hPa SSW 19.3 km/h 35.4 km/h 48% 0 mm
05:40 1.3 °C -8.5 °C 1025.6 hPa SSW 22.5 km/h 37 km/h 48% 0 mm
05:50 1.4 °C -8.2 °C 1025.6 hPa SSW 14.5 km/h 40.2 km/h 49% 0 mm
06:00 1.4 °C -8.1 °C 1025.3 hPa SSW 17.7 km/h 41.8 km/h 49% 0 mm
06:05 1.4 °C -8.1 °C 1025.3 hPa SSW 17.7 km/h 41.8 km/h 49% 0 mm
06:10 1.5 °C -8.1 °C 1025.3 hPa SSW 22.5 km/h 38.6 km/h 49% 0 mm
06:15 1.6 °C -7.8 °C 1025.3 hPa SSW 16.1 km/h 38.6 km/h 50% 0 mm
06:20 1.6 °C -7.8 °C 1025.3 hPa SSW 16.1 km/h 38.6 km/h 50% 0 mm
06:25 1.6 °C -7.8 °C 1025.3 hPa SSW 19.3 km/h 38.6 km/h 50% 0 mm
06:30 1.6 °C -7.8 °C 1025.3 hPa SSW 17.7 km/h 41.8 km/h 50% 0 mm
06:35 1.6 °C -7.7 °C 1024.9 hPa SSW 20.9 km/h 41.8 km/h 50% 0 mm
06:45 1.7 °C -7.7 °C 1024.9 hPa SSW 19.3 km/h 38.6 km/h 50% 0 mm
06:50 1.7 °C -7.6 °C 1024.9 hPa SSW 19.3 km/h 38.6 km/h 50% 0 mm
06:55 1.8 °C -7.6 °C 1024.9 hPa SSW 19.3 km/h 38.6 km/h 50% 0 mm
07:00 1.8 °C -7.3 °C 1024.6 hPa SSW 19.3 km/h 38.6 km/h 51% 0 mm
07:05 1.8 °C -7.2 °C 1024.6 hPa SSW 19.3 km/h 37 km/h 51% 0 mm
07:10 1.9 °C -7.2 °C 1024.6 hPa SSW 14.5 km/h 35.4 km/h 51% 0 mm
07:15 1.9 °C -7.1 °C 1024.6 hPa SSW 14.5 km/h 33.8 km/h 51% 0 mm
07:20 2.1 °C -7.1 °C 1024.6 hPa SSW 19.3 km/h 43.5 km/h 51% 0 mm
07:25 2.1 °C -7.1 °C 1024.6 hPa SW 17.7 km/h 43.5 km/h 51% 0 mm
07:30 2.2 °C -6.9 °C 1024.6 hPa SSW 17.7 km/h 38.6 km/h 51% 0 mm
07:40 2.3 °C -6.8 °C 1024.6 hPa SSW 20.9 km/h 37 km/h 51% 0 mm
07:45 2.3 °C -6.8 °C 1024.6 hPa SSW 12.9 km/h 35.4 km/h 51% 0 mm
07:50 2.4 °C -6.7 °C 1024.3 hPa SSW 16.1 km/h 32.2 km/h 51% 0 mm
07:55 2.5 °C -6.9 °C 1024.3 hPa SSW 17.7 km/h 37 km/h 50% 0 mm
08:00 2.7 °C -6.4 °C 1024.3 hPa SW 16.1 km/h 38.6 km/h 51% 0 mm
08:05 2.7 °C -6.7 °C 1024.3 hPa SSW 19.3 km/h 40.2 km/h 50% 0 mm
08:10 2.9 °C -6.5 °C 1024.3 hPa SSW 17.7 km/h 40.2 km/h 50% 0 mm
08:20 3.4 °C -6 °C 1024.3 hPa SSW 20.9 km/h 40.2 km/h 50% 0 mm
08:30 3.7 °C -6 °C 1024.3 hPa SSW 17.7 km/h 33.8 km/h 49% 0 mm
08:35 3.8 °C -5.9 °C 1024.3 hPa SSW 22.5 km/h 38.6 km/h 49% 0 mm
08:40 4.1 °C -5.7 °C 1024.3 hPa SSW 16.1 km/h 38.6 km/h 49% 0 mm
08:45 4.3 °C -5.8 °C 1023.9 hPa SSW 19.3 km/h 35.4 km/h 48% 0 mm
08:55 4.6 °C -5.8 °C 1023.9 hPa SSW 19.3 km/h 38.6 km/h 47% 0 mm
09:00 4.7 °C -5.6 °C 1023.9 hPa SSW 19.3 km/h 40.2 km/h 47% 0 mm
09:05 4.8 °C -5.6 °C 1023.9 hPa SSW 22.5 km/h 41.8 km/h 47% 0 mm
09:10 4.9 °C -5.7 °C 1023.9 hPa SSW 20.9 km/h 41.8 km/h 46% 0 mm
09:15 5.1 °C -5.6 °C 1023.9 hPa SSW 22.5 km/h 53.1 km/h 46% 0 mm
09:20 5.2 °C -5.5 °C 1023.9 hPa SSW 24.1 km/h 53.1 km/h 46% 0 mm
09:25 5.3 °C -5.4 °C 1023.6 hPa SSW 22.5 km/h 40.2 km/h 46% 0 mm
09:30 5.4 °C -5.3 °C 1023.9 hPa SSW 20.9 km/h 37 km/h 46% 0 mm
09:40 5.6 °C -5.4 °C 1023.6 hPa SSW 20.9 km/h 37 km/h 45% 0 mm
09:50 5.8 °C -5.2 °C 1023.6 hPa SSW 19.3 km/h 38.6 km/h 45% 0 mm
09:55 5.9 °C -5.1 °C 1023.2 hPa SSW 16.1 km/h 38.6 km/h 45% 0 mm
10:00 6 °C -5.1 °C 1023.2 hPa SW 22.5 km/h 41.8 km/h 45% 0 mm
10:05 6.1 °C -4.9 °C 1023.6 hPa SW 20.9 km/h 41.8 km/h 45% 0 mm
10:10 6.2 °C -4.8 °C 1023.2 hPa SSW 20.9 km/h 37 km/h 45% 0 mm
10:15 6.3 °C -4.8 °C 1023.2 hPa SSW 17.7 km/h 35.4 km/h 45% 0 mm
10:20 6.4 °C -4.7 °C 1023.2 hPa SSW 17.7 km/h 37 km/h 45% 0 mm
10:25 6.5 °C -4.9 °C 1023.2 hPa SSW 17.7 km/h 37 km/h 44% 0 mm
10:30 6.6 °C -4.6 °C 1022.9 hPa SW 19.3 km/h 35.4 km/h 45% 0 mm
10:40 6.7 °C -4.7 °C 1022.9 hPa SW 16.1 km/h 37 km/h 44% 0 mm
10:45 6.8 °C -4.9 °C 1022.9 hPa SW 24.1 km/h 38.6 km/h 43% 0 mm
10:50 6.9 °C -4.8 °C 1022.9 hPa SSW 19.3 km/h 38.6 km/h 43% 0 mm
10:55 7.1 °C -4.7 °C 1022.9 hPa SSW 19.3 km/h 33.8 km/h 43% 0 mm
11:05 7.3 °C -4.5 °C 1022.6 hPa SW 16.1 km/h 37 km/h 43% 0 mm
11:10 7.3 °C -4.5 °C 1022.6 hPa SSW 19.3 km/h 37 km/h 43% 0 mm
11:15 7.3 °C -4.4 °C 1022.6 hPa SSW 16.1 km/h 37 km/h 43% 0 mm
11:20 7.6 °C -4.2 °C 1022.6 hPa SSW 14.5 km/h 37 km/h 43% 0 mm
11:25 7.7 °C -4.4 °C 1022.6 hPa SSW 14.5 km/h 30.6 km/h 42% 0 mm
11:30 7.8 °C -4 °C 1022.2 hPa SSW 19.3 km/h 35.4 km/h 43% 0 mm
11:40 7.9 °C -4.2 °C 1022.2 hPa SSW 19.3 km/h 40.2 km/h 42% 0 mm
11:45 8.3 °C -4.2 °C 1022.2 hPa SSW 17.7 km/h 35.4 km/h 41% 0 mm
11:50 8.4 °C -3.8 °C 1022.2 hPa SW 11.3 km/h 30.6 km/h 42% 0 mm
11:55 8.6 °C -3.6 °C 1021.9 hPa SSW 16.1 km/h 29 km/h 42% 0 mm
12:00 8.7 °C -3.8 °C 1021.9 hPa SSW 16.1 km/h 29 km/h 41% 0 mm
12:05 8.8 °C -4.1 °C 1021.9 hPa SW 17.7 km/h 29 km/h 40% 0 mm
12:10 8.9 °C -3.9 °C 1021.6 hPa SW 16.1 km/h 32.2 km/h 40% 0 mm
12:15 9 °C -3.6 °C 1021.6 hPa SW 17.7 km/h 32.2 km/h 41% 0 mm
12:20 9 °C -3.6 °C 1021.6 hPa SSW 17.7 km/h 35.4 km/h 41% 0 mm
12:25 9.1 °C -3.8 °C 1021.6 hPa SW 16.1 km/h 35.4 km/h 40% 0 mm
12:30 8.9 °C -3.9 °C 1021.6 hPa SW 16.1 km/h 30.6 km/h 40% 0 mm
12:35 8.9 °C -3.7 °C 1021.6 hPa SW 14.5 km/h 30.6 km/h 41% 0 mm
12:40 8.8 °C -3.7 °C 1021.6 hPa SSW 9.7 km/h 30.6 km/h 41% 0 mm
12:45 8.9 °C -3.6 °C 1021.2 hPa SSW 11.3 km/h 27.4 km/h 41% 0 mm
12:50 9.1 °C -3.5 °C 1021.2 hPa SSW 9.7 km/h 27.4 km/h 41% 0 mm
12:55 9.4 °C -2.9 °C 1021.2 hPa SSW 9.7 km/h 22.5 km/h 42% 0 mm
13:00 9.6 °C -3.4 °C 1020.9 hPa SSW 14.5 km/h 27.4 km/h 40% 0 mm
13:05 9.7 °C -3.6 °C 1020.9 hPa SSW 17.7 km/h 27.4 km/h 39% 0 mm
13:10 9.8 °C -3.5 °C 1020.9 hPa SSW 16.1 km/h 30.6 km/h 39% 0 mm
13:15 10 °C -3.3 °C 1020.9 hPa SSW 16.1 km/h 32.2 km/h 39% 0 mm
13:20 10.2 °C -3.5 °C 1020.9 hPa SSW 16.1 km/h 32.2 km/h 38% 0 mm
13:25 10.2 °C -3.2 °C 1020.9 hPa SSW 14.5 km/h 29 km/h 39% 0 mm
13:35 10.4 °C -3.3 °C 1020.5 hPa SSW 16.1 km/h 27.4 km/h 38% 0 mm
13:40 10.6 °C -3.2 °C 1020.5 hPa SW 14.5 km/h 29 km/h 38% 0 mm
13:45 10.8 °C -3 °C 1020.2 hPa SSW 12.9 km/h 29 km/h 38% 0 mm
13:50 11 °C -2.8 °C 1020.2 hPa SSW 12.9 km/h 29 km/h 38% 0 mm
13:55 11.2 °C -3 °C 1020.2 hPa SSW 14.5 km/h 27.4 km/h 37% 0 mm
14:00 11.2 °C -2.6 °C 1020.2 hPa SSW 12.9 km/h 27.4 km/h 38% 0 mm
14:05 11.3 °C -2.6 °C 1020.2 hPa SSW 16.1 km/h 25.7 km/h 38% 0 mm
14:10 11.4 °C -2.8 °C 1019.9 hPa SSW 16.1 km/h 29 km/h 37% 0 mm
14:15 11.6 °C -2.7 °C 1019.9 hPa SSW 16.1 km/h 29 km/h 37% 0 mm
14:20 11.5 °C -2.7 °C 1019.9 hPa SSW 14.5 km/h 29 km/h 37% 0 mm
14:25 11.6 °C -2.7 °C 1019.9 hPa SSW 16.1 km/h 32.2 km/h 37% 0 mm
14:30 11.6 °C -2.7 °C 1019.9 hPa SSW 12.9 km/h 32.2 km/h 37% 0 mm
14:35 11.4 °C -2.8 °C 1019.5 hPa SSW 16.1 km/h 25.7 km/h 37% 0 mm
14:40 11.6 °C -2.7 °C 1019.9 hPa SSW 12.9 km/h 29 km/h 37% 0 mm
14:45 11.7 °C -2.6 °C 1019.9 hPa SSW 12.9 km/h 29 km/h 37% 0 mm
14:55 11.6 °C -2.7 °C 1019.5 hPa SSW 12.9 km/h 29 km/h 37% 0 mm
15:00 11.6 °C -2.3 °C 1019.5 hPa SSW 14.5 km/h 29 km/h 38% 0 mm
15:05 11.9 °C -2.3 °C 1019.5 hPa SSW 12.9 km/h 25.7 km/h 37% 0 mm
15:10 12.1 °C -2.2 °C 1019.5 hPa SW 11.3 km/h 29 km/h 37% 0 mm
15:20 12.1 °C -2.2 °C 1019.5 hPa SSW 14.5 km/h 24.1 km/h 37% 0 mm
15:30 11.9 °C -2.7 °C 1019.5 hPa SSW 16.1 km/h 30.6 km/h 36% 0 mm
15:35 11.9 °C -2.3 °C 1019.5 hPa SSW 12.9 km/h 30.6 km/h 37% 0 mm
15:40 12 °C -2.6 °C 1019.2 hPa SSW 12.9 km/h 29 km/h 36% 0 mm
15:45 11.9 °C -2.3 °C 1019.2 hPa SSW 14.5 km/h 29 km/h 37% 0 mm
15:55 11.5 °C -2.3 °C 1019.2 hPa SSW 14.5 km/h 32.2 km/h 38% 0 mm
16:00 11.6 °C -2.6 °C 1018.8 hPa SSW 14.5 km/h 30.6 km/h 37% 0 mm
16:05 11.6 °C -2.3 °C 1018.8 hPa SSW 8 km/h 35.4 km/h 38% 0 mm
16:10 11.5 °C -2.3 °C 1018.8 hPa SSW 11.3 km/h 35.4 km/h 38% 0 mm
16:15 11.5 °C -2.3 °C 1018.8 hPa SSW 11.3 km/h 27.4 km/h 38% 0 mm
16:20 11.6 °C -2.3 °C 1018.8 hPa SSW 12.9 km/h 27.4 km/h 38% 0 mm
16:25 11.6 °C -2.3 °C 1018.8 hPa SSW 12.9 km/h 22.5 km/h 38% 0 mm
16:30 11.6 °C -2.2 °C 1018.8 hPa SSW 12.9 km/h 22.5 km/h 38% 0 mm
16:35 11.6 °C -2.6 °C 1018.8 hPa SSW 11.3 km/h 22.5 km/h 37% 0 mm
16:40 11.6 °C -2.7 °C 1018.8 hPa SSW 14.5 km/h 27.4 km/h 37% 0 mm
16:45 11.4 °C -2.4 °C 1018.8 hPa SSW 12.9 km/h 27.4 km/h 38% 0 mm
16:50 11.2 °C -2.6 °C 1018.8 hPa SSW 11.3 km/h 25.7 km/h 38% 0 mm
16:55 11.1 °C -2.3 °C 1018.8 hPa SSW 9.7 km/h 27.4 km/h 39% 0 mm
17:05 11 °C -2.4 °C 1018.8 hPa SSW 9.7 km/h 25.7 km/h 39% 0 mm
17:15 10.8 °C -2.6 °C 1018.8 hPa SSW 12.9 km/h 25.7 km/h 39% 0 mm
17:20 10.8 °C -2.6 °C 1018.8 hPa SSW 11.3 km/h 25.7 km/h 39% 0 mm
17:25 10.7 °C -2.7 °C 1018.8 hPa SSW 14.5 km/h 27.4 km/h 39% 0 mm
17:30 10.6 °C -2.5 °C 1018.8 hPa SSW 12.9 km/h 27.4 km/h 40% 0 mm
17:35 10.4 °C -2.6 °C 1018.8 hPa SSW 12.9 km/h 22.5 km/h 40% 0 mm
17:40 10.3 °C -2.7 °C 1018.8 hPa SSW 12.9 km/h 22.5 km/h 40% 0 mm
17:45 10.3 °C -2.4 °C 1018.8 hPa SSW 8 km/h 22.5 km/h 41% 0 mm
17:50 10.3 °C -2.4 °C 1018.8 hPa SSW 14.5 km/h 22.5 km/h 41% 0 mm
17:55 10.2 °C -2.5 °C 1018.8 hPa SSW 9.7 km/h 22.5 km/h 41% 0 mm
18:00 10.1 °C -2.2 °C 1018.8 hPa SSW 9.7 km/h 24.1 km/h 42% 0 mm
18:10 10.2 °C -2.5 °C 1018.8 hPa SSW 14.5 km/h 25.7 km/h 41% 0 mm
18:15 10.2 °C -2.4 °C 1018.8 hPa SSW 12.9 km/h 25.7 km/h 41% 0 mm
18:20 10.2 °C -2.2 °C 1018.8 hPa South 11.3 km/h 27.4 km/h 42% 0 mm
18:25 10.1 °C -2.2 °C 1018.8 hPa SSW 12.9 km/h 27.4 km/h 42% 0 mm
18:30 10.2 °C -2.2 °C 1018.8 hPa SSW 14.5 km/h 25.7 km/h 42% 0 mm
18:35 10.3 °C -2.4 °C 1018.8 hPa SSW 14.5 km/h 29 km/h 41% 0 mm
18:40 10.2 °C -2.2 °C 1018.8 hPa SSW 12.9 km/h 29 km/h 42% 0 mm
18:45 10.2 °C -2.2 °C 1018.8 hPa SSW 12.9 km/h 27.4 km/h 42% 0 mm
18:50 10.1 °C -1.9 °C 1018.8 hPa SSW 11.3 km/h 24.1 km/h 43% 0 mm
18:55 10.1 °C -1.9 °C 1018.8 hPa SSW 16.1 km/h 32.2 km/h 43% 0 mm
19:00 10.1 °C -1.9 °C 1018.8 hPa SSW 14.5 km/h 32.2 km/h 43% 0 mm
19:05 10.1 °C -1.9 °C 1018.5 hPa SSW 16.1 km/h 29 km/h 43% 0 mm
19:10 10.1 °C -1.9 °C 1018.5 hPa SSW 12.9 km/h 25.7 km/h 43% 0 mm
19:15 10.1 °C -1.7 °C 1018.5 hPa SSW 12.9 km/h 27.4 km/h 44% 0 mm
19:20 9.9 °C -1.7 °C 1018.5 hPa SSW 12.9 km/h 27.4 km/h 44% 0 mm
19:25 10.1 °C -1.7 °C 1018.5 hPa SSW 14.5 km/h 27.4 km/h 44% 0 mm
19:35 10.1 °C -1.6 °C 1018.5 hPa SSW 19.3 km/h 32.2 km/h 44% 0 mm
19:40 10.1 °C -1.6 °C 1018.5 hPa SSW 12.9 km/h 32.2 km/h 44% 0 mm
19:45 10.3 °C -1.4 °C 1018.5 hPa SSW 16.1 km/h 27.4 km/h 44% 0 mm
19:50 10.2 °C -1.5 °C 1018.5 hPa SSW 12.9 km/h 27.4 km/h 44% 0 mm
19:55 10.2 °C -1.2 °C 1018.5 hPa SSW 12.9 km/h 30.6 km/h 45% 0 mm
20:00 10.3 °C -1.4 °C 1018.5 hPa SSW 14.5 km/h 30.6 km/h 44% 0 mm
20:05 10.4 °C -1.3 °C 1018.5 hPa SSW 14.5 km/h 27.4 km/h 44% 0 mm
20:10 10.4 °C -1.3 °C 1018.5 hPa SSW 11.3 km/h 32.2 km/h 44% 0 mm
20:15 10.6 °C -1.2 °C 1018.2 hPa SSW 16.1 km/h 35.4 km/h 44% 0 mm
20:20 10.5 °C -1.2 °C 1018.2 hPa SSW 11.3 km/h 35.4 km/h 44% 0 mm
20:25 10.3 °C -1.1 °C 1018.2 hPa SSW 12.9 km/h 33.8 km/h 45% 0 mm
20:30 10.4 °C -1.3 °C 1018.2 hPa SSW 19.3 km/h 37 km/h 44% 0 mm
20:35 10.5 °C -1.2 °C 1017.8 hPa SSW 16.1 km/h 37 km/h 44% 0 mm
20:45 10.4 °C -1.3 °C 1017.8 hPa SSW 14.5 km/h 33.8 km/h 44% 0 mm
20:50 10.4 °C -1.1 °C 1017.8 hPa SSW 17.7 km/h 38.6 km/h 45% 0 mm
20:55 10.4 °C -1.1 °C 1017.8 hPa SSW 14.5 km/h 38.6 km/h 45% 0 mm
21:05 10.5 °C -1.2 °C 1017.8 hPa SSW 14.5 km/h 38.6 km/h 44% 0 mm
21:10 10.5 °C -0.9 °C 1017.8 hPa SSW 16.1 km/h 32.2 km/h 45% 0 mm
21:15 10.5 °C -1.2 °C 1017.5 hPa SSW 17.7 km/h 37 km/h 44% 0 mm
21:20 10.4 °C -1 °C 1017.5 hPa SW 19.3 km/h 37 km/h 45% 0 mm
21:30 10.4 °C -1 °C 1017.5 hPa SW 20.9 km/h 33.8 km/h 45% 0 mm
21:35 10.5 °C -1.2 °C 1017.5 hPa SSW 12.9 km/h 37 km/h 44% 0 mm
21:40 10.4 °C -1 °C 1017.5 hPa SSW 16.1 km/h 37 km/h 45% 0 mm
21:45 10.4 °C -1.1 °C 1017.5 hPa SW 17.7 km/h 37 km/h 45% 0 mm
21:55 10.3 °C -1.1 °C 1017.5 hPa SSW 12.9 km/h 38.6 km/h 45% 0 mm
22:00 10.3 °C -1.1 °C 1017.5 hPa SSW 12.9 km/h 29 km/h 45% 0 mm
22:05 10.2 °C -1.2 °C 1017.5 hPa SSW 11.3 km/h 32.2 km/h 45% 0 mm
22:10 10.3 °C -1.1 °C 1017.5 hPa SSW 16.1 km/h 32.2 km/h 45% 0 mm
22:15 10.2 °C -1.2 °C 1017.5 hPa SSW 12.9 km/h 27.4 km/h 45% 0 mm
22:20 10.2 °C -1.2 °C 1017.5 hPa SSW 11.3 km/h 25.7 km/h 45% 0 mm
22:30 10.2 °C -1.2 °C 1017.5 hPa SSW 16.1 km/h 33.8 km/h 45% 0 mm
22:40 10.2 °C -1.2 °C 1017.5 hPa SSW 16.1 km/h 29 km/h 45% 0 mm
22:45 10.2 °C -1.2 °C 1017.5 hPa SSW 12.9 km/h 29 km/h 45% 0 mm
22:50 10.2 °C -1.2 °C 1017.5 hPa SSW 11.3 km/h 30.6 km/h 45% 0 mm
22:55 10.1 °C -1.3 °C 1017.5 hPa SSW 12.9 km/h 30.6 km/h 45% 0 mm
23:00 10.2 °C -1.2 °C 1017.5 hPa SSW 14.5 km/h 30.6 km/h 45% 0 mm
23:05 10.1 °C -1.3 °C 1017.5 hPa SSW 14.5 km/h 30.6 km/h 45% 0 mm
23:10 10.2 °C -1.2 °C 1017.5 hPa SSW 12.9 km/h 30.6 km/h 45% 0 mm
23:15 10.2 °C -1.5 °C 1017.5 hPa SSW 17.7 km/h 30.6 km/h 44% 0 mm
23:20 10.2 °C -1.2 °C 1017.5 hPa SSW 14.5 km/h 30.6 km/h 45% 0 mm
23:25 10.1 °C -1.3 °C 1017.5 hPa SSW 12.9 km/h 30.6 km/h 45% 0 mm
23:35 9.9 °C -1.4 °C 1017.5 hPa SSW 12.9 km/h 27.4 km/h 45% 0 mm
23:40 10.1 °C -1.7 °C 1017.5 hPa SSW 16.1 km/h 27.4 km/h 44% 0 mm
23:45 10 °C -1.4 °C 1017.5 hPa SSW 12.9 km/h 29 km/h 45% 0 mm
23:50 9.9 °C -1.4 °C 1017.2 hPa SSW 12.9 km/h 29 km/h 45% 0 mm
Westford Weather
Compliments of Weather Underground

 
 
Current Radar Loop:

Copyright © WestfordWeather.net 2007-2014. All rights reserved.